Theta_e
319 319 319 318 318 317 318 318 317 317 317 316 316 316 315 316 316 317 318 319 321 322 323 324 324 324 325 325 325 326 326 326 326 326 326 326 325 325 325 324 324 324
319 318 318 318 317 317 317 318 318 318 317 317 317 317 317 317 317 318 318 319 320 321 323 324 324 325 325 325 326 326 326 326 326 326 326 326 326 325 325 325 324 324
318 318 317 317 315 315 316 317 318 318 317 317 317 317 318 319 320 320 320 321 321 322 323 324 324 324 325 325 326 326 326 326 326 326 326 326 326 326 325 325 325 324
319 318 318 317 316 316 316 318 318 317 318 318 318 319 319 320 321 322 322 322 323 323 323 324 324 324 325 325 326 326 326 326 326 326 325 326 326 326 325 325 324 324
319 319 319 318 318 318 318 319 318 318 319 319 319 320 320 321 322 323 323 323 324 324 324 324 324 325 325 325 325 326 326 325 325 325 325 325 325 326 326 325 324 325
320 320 319 319 319 320 320 320 319 319 320 320 321 321 321 322 323 323 324 324 325 325 325 326 326 326 325 325 325 325 325 325 325 325 325 325 325 325 326 325 324 324
320 320 320 320 320 320 320 320 320 320 320 321 322 322 322 323 324 324 325 326 326 326 326 326 326 326 326 326 326 326 326 325 325 325 325 325 325 325 326 325 325 324
320 321 321 321 321 321 321 320 320 320 321 322 323 322 323 324 324 325 325 326 326 326 326 326 326 326 326 326 326 325 325 325 325 325 325 325 325 324 325 324 323 324
320 320 321 321 321 321 320 320 320 321 322 323 323 323 324 324 325 325 326 326 326 325 325 325 326 326 326 326 325 325 325 324 324 324 324 324 322 320 320 321 322 324
318 319 319 320 319 319 319 319 320 320 321 321 321 322 322 322 323 325 326 326 325 325 325 325 325 325 325 325 324 324 324 323 322 321 322 323 323 321 321 322 324 324
315 316 316 317 316 316 316 316 316 315 315 316 316 318 319 320 323 326 326 325 324 324 324 323 323 324 325 325 324 324 324 323 323 322 321 322 324 325 324 323 324 325
313 313 313 313 313 312 312 311 311 311 311 312 313 315 317 320 322 322 322 322 322 322 323 323 322 323 324 324 323 323 323 324 325 326 325 324 323 323 323 322 322 322
312 312 311 311 311 310 310 310 310 310 310 310 311 313 315 316 317 317 318 320 321 322 322 321 320 322 324 324 323 322 321 322 324 326 326 324 322 321 320 319 319 319
311 311 311 311 310 310 310 310 310 310 309 310 310 311 311 312 313 314 316 317 319 321 321 321 321 323 324 323 322 322 320 321 323 324 323 321 319 319 319 319 320 321
311 311 310 310 310 310 310 310 310 309 309 310 310 310 310 311 311 311 312 314 316 318 321 323 324 325 325 322 321 322 322 324 324 321 319 318 318 319 321 322 323 323
311 311 311 310 311 311 310 310 310 310 310 310 310 311 311 310 310 311 313 317 318 318 319 321 321 321 322 322 322 323 324 325 322 319 317 318 320 322 323 322 322 322
311 311 311 311 311 311 311 311 311 311 311 311 311 311 311 311 311 311 314 319 321 321 321 322 321 320 321 322 322 322 322 321 320 319 319 319 320 322 321 321 321 321
311 311 311 311 311 311 310 310 310 310 310 310 310 310 311 311 311 311 312 315 318 318 318 319 319 319 321 321 320 319 319 320 320 320 320 320 321 321 320 320 321 320
310 310 310 310 310 310 310 310 310 310 310 310 310 310 311 311 311 311 312 312 313 314 314 314 314 314 316 318 318 316 317 318 320 320 320 320 320 320 320 320 320 320
310 310 310 310 310 311 311 311 311 311 311 311 311 311 311 311 310 311 311 311 311 311 311 311 312 312 313 314 315 315 315 317 318 319 320 320 319 320 321 321 320 320
310 310 310 310 310 310 311 311 311 311 311 311 311 311 311 310 310 310 310 310 309 308 308 309 312 313 313 314 316 317 318 318 317 318 319 319 319 320 321 320 319 320
311 311 310 310 310 310 310 311 311 311 311 311 311 311 311 310 310 310 310 309 309 308 308 309 311 313 314 315 316 317 317 316 315 316 318 318 319 319 319 319 319 319
312 311 311 310 310 310 310 310 310 311 311 311 311 311 311 310 310 310 310 309 309 309 309 309 309 310 311 310 311 312 313 315 316 317 317 317 318 317 317 318 318 317
312 311 310 310 310 310 310 310 310 311 311 311 311 311 311 311 310 310 310 309 309 308 308 308 308 308 308 308 310 311 313 314 315 315 315 315 315 315 316 317 317 315
312 310 310 310 309 309 309 310 310 310 311 311 311 311 311 311 310 310 310 309 308 307 307 308 307 308 308 309 310 310 311 311 312 313 315 315 315 315 316 316 316 315
312 311 310 310 309 309 309 309 310 310 310 311 311 311 311 311 310 310 309 309 308 308 309 309 309 309 310 311 311 312 312 312 313 314 316 316 316 315 315 315 315 314
Wind_Speed
43 43 44 44 43 42 42 42 41 40 38 37 36 34 34 34 34 35 35 35 35 36 35 36 36 36 37 37 38 38 38 38 37 36 36 37 37 36 36 36 35 34
41 42 43 43 43 42 42 42 41 41 39 37 36 34 34 34 35 35 35 35 35 35 35 35 35 36 36 37 38 38 38 39 38 37 37 38 37 37 37 36 35 35
40 40 41 42 41 41 41 41 42 41 39 38 37 36 36 36 36 36 36 35 35 35 34 34 34 35 35 35 36 37 38 38 38 37 37 38 38 38 38 37 36 36
39 39 40 39 39 40 40 42 42 41 40 39 38 38 37 37 36 36 36 36 36 35 34 33 33 33 33 34 35 36 36 37 37 36 36 37 37 37 37 37 34 35
38 38 38 37 38 39 40 42 41 40 40 39 38 38 37 37 36 36 35 35 35 34 33 32 32 32 32 32 33 34 35 36 36 35 35 36 36 36 38 38 36 37
38 38 37 37 37 38 40 41 39 39 40 39 38 38 36 36 35 34 34 33 33 32 32 31 31 31 31 31 32 33 34 35 35 34 34 35 36 36 38 38 37 38
37 37 37 37 38 39 39 39 38 38 38 38 38 36 35 35 34 33 32 31 31 30 30 30 29 30 30 30 32 32 33 34 33 34 34 34 35 35 37 38 37 40
35 36 37 38 38 38 38 37 37 37 37 37 37 35 34 34 32 32 30 29 29 29 29 28 28 29 29 30 31 31 31 31 32 33 33 33 35 35 35 35 36 43
35 36 36 37 37 37 37 37 36 36 36 36 35 34 33 32 31 30 29 28 29 28 28 28 28 29 29 29 30 30 30 29 29 32 33 33 33 32 31 31 35 42
34 35 36 36 37 37 36 36 35 35 34 34 33 32 32 31 30 29 28 28 29 29 29 28 27 28 28 29 30 29 28 26 26 29 31 32 33 34 33 34 37 40
34 34 35 36 36 36 35 34 33 32 32 32 32 31 31 30 29 29 29 29 29 29 28 27 26 27 28 28 27 28 28 27 27 28 29 31 35 38 38 36 38 40
34 34 34 34 33 33 32 31 31 31 31 31 31 31 30 30 30 30 29 28 28 27 26 25 24 24 26 26 24 25 27 28 31 34 35 32 31 33 34 34 38 39
34 34 33 32 31 30 29 29 29 30 30 30 30 31 30 30 30 28 27 26 25 24 23 22 21 21 23 24 24 24 24 25 30 34 34 30 29 32 33 33 34 34
30 31 31 30 29 28 28 28 29 29 29 29 28 28 28 28 27 27 25 24 23 22 21 20 20 21 21 21 21 21 21 23 25 26 26 26 28 30 29 29 30 32
23 25 26 27 27 27 27 26 26 26 25 25 25 25 25 25 25 24 23 22 22 21 21 22 23 24 22 19 19 20 23 25 22 20 22 25 26 26 26 28 31 33
20 21 22 22 23 23 23 22 22 22 22 22 22 22 22 22 22 21 19 19 19 19 21 22 23 23 22 22 24 25 25 24 21 20 23 25 25 25 26 27 27 28
18 18 18 19 19 19 19 19 19 20 20 20 20 20 21 21 21 21 20 20 21 21 21 23 23 23 23 23 23 22 21 22 24 26 27 26 25 25 25 23 22 23
15 16 16 17 17 17 18 18 18 19 19 19 20 20 21 22 23 23 23 23 25 26 26 27 27 27 26 24 22 22 23 26 27 28 28 28 28 27 26 24 22 21
14 15 16 16 17 17 18 18 19 19 19 20 20 21 22 23 24 24 24 25 27 28 29 28 27 27 28 26 25 25 26 26 25 24 26 27 26 25 24 24 22 19
16 17 17 18 18 18 19 20 20 20 20 20 21 21 22 22 22 23 24 25 26 27 28 26 24 24 25 24 24 24 24 25 24 23 23 22 21 20 20 19 18 17
18 19 20 20 20 20 21 21 21 21 21 21 21 21 21 21 21 22 22 23 23 24 24 23 22 21 21 22 22 22 22 24 25 24 22 21 21 20 19 17 16 16
21 21 22 22 22 23 23 22 22 22 22 22 22 22 21 21 21 21 21 21 21 21 21 22 22 22 23 24 24 24 24 23 24 25 22 20 20 20 20 19 18 17
24 24 24 25 25 25 25 24 23 23 23 22 23 22 22 22 21 20 19 19 19 19 20 20 21 22 23 23 24 24 23 22 23 23 23 23 23 22 20 19 17 15
28 27 27 27 27 27 27 26 25 24 24 24 23 23 22 21 20 18 17 16 16 15 15 16 16 18 20 21 21 23 23 23 23 23 23 24 24 23 20 17 14 12
28 28 28 28 28 27 27 26 25 25 25 24 23 22 20 19 18 16 15 14 13 12 12 11 12 13 15 16 18 20 21 21 21 21 21 22 21 20 17 14 12 11
29 28 28 28 27 27 26 25 25 25 24 24 22 20 19 18 17 16 14 13 12 11 11 11 11 11 12 12 14 15 16 17 18 19 19 18 16 15 13 11 11 11
Wind_Direction
254 254 255 255 257 258 259 260 262 264 265 266 267 267 268 268 268 268 267 267 267 267 268 268 268 268 268 268 268 267 267 266 266 266 265 265 265 265 264 264 263 264
255 255 255 256 256 257 258 260 261 263 266 268 269 270 270 270 269 268 268 268 268 269 269 270 270 270 270 269 269 268 269 268 267 267 266 265 265 265 265 265 265 265
257 256 257 257 257 259 260 261 262 264 267 268 270 270 271 271 270 270 269 269 270 270 270 270 271 271 270 270 270 269 269 269 269 269 268 267 266 265 266 266 266 266
258 258 259 260 261 263 262 262 263 265 266 267 269 270 271 272 272 271 271 271 271 272 272 271 271 270 270 269 269 268 269 269 270 270 270 269 267 266 267 266 265 265
259 260 262 263 264 264 263 263 264 265 266 267 268 269 271 272 272 273 272 272 272 273 273 272 271 270 269 269 268 268 269 269 270 270 269 270 268 267 267 263 261 262
258 259 260 261 261 262 262 263 264 265 266 267 269 270 271 272 273 273 273 273 273 273 273 273 272 271 269 269 268 268 269 269 270 269 268 269 269 268 267 262 261 260
254 255 256 257 258 259 261 262 263 264 266 267 268 269 270 271 271 272 272 273 273 272 273 272 271 271 270 270 268 268 270 270 271 271 269 271 269 269 268 264 264 262
249 251 252 254 256 257 259 260 261 263 265 267 268 269 270 271 271 272 272 273 272 271 271 270 270 270 270 270 269 268 270 271 272 270 268 269 267 266 267 264 264 262
246 248 250 252 253 254 256 258 260 262 264 266 267 268 270 270 271 272 273 273 271 270 269 268 268 269 269 270 269 268 269 269 270 270 267 268 267 263 261 262 265 265
245 246 248 250 251 252 254 256 258 261 263 265 266 266 267 268 269 271 271 271 270 268 269 267 267 267 267 269 268 267 268 267 268 270 267 266 270 267 261 262 267 266
247 248 248 250 251 253 256 258 260 262 262 263 264 264 265 266 267 267 266 267 267 266 267 267 267 266 265 266 268 267 266 263 265 270 266 261 264 265 264 264 266 262
251 251 252 253 255 257 259 260 260 261 261 261 262 262 264 264 264 264 263 262 263 264 266 266 266 266 265 266 268 270 268 265 265 266 263 262 267 271 273 272 268 265
251 252 253 255 256 257 257 257 257 257 257 258 259 260 261 262 261 261 259 259 260 261 262 262 261 263 266 265 265 268 269 269 270 267 264 269 276 280 280 276 269 267
251 251 251 251 251 251 250 250 250 251 252 253 255 256 257 257 256 255 253 253 253 253 255 259 260 259 258 261 264 264 263 265 268 268 271 277 277 277 280 278 276 276
243 243 242 242 242 243 243 244 245 246 247 248 249 250 251 252 251 249 247 246 247 247 248 253 259 257 253 255 260 260 262 264 263 266 276 279 276 276 279 281 283 285
230 231 231 232 234 235 235 236 237 239 241 242 243 245 248 251 251 248 246 247 248 248 247 249 254 253 250 252 256 259 263 264 262 266 270 269 271 279 284 285 285 285
224 224 225 226 226 227 229 230 231 234 237 240 243 245 249 251 252 248 242 239 241 242 242 241 243 246 247 250 253 256 258 260 260 260 260 260 266 277 284 284 280 279
224 223 222 223 224 225 227 228 230 233 235 239 242 245 247 249 250 249 244 239 238 239 240 240 241 244 248 251 252 250 252 256 256 253 255 260 265 270 275 277 273 272
224 224 223 223 224 225 226 228 230 232 234 237 239 241 244 246 247 249 248 246 245 246 248 248 245 244 246 249 250 248 249 252 253 255 261 265 264 265 271 272 267 265
227 225 225 224 224 226 227 229 231 232 234 236 237 239 241 243 245 246 246 247 247 247 247 246 244 243 243 244 244 246 248 249 253 261 266 263 261 263 268 268 264 264
231 229 228 227 227 228 229 231 232 233 234 235 236 238 240 241 243 243 244 244 244 243 241 238 238 240 240 239 239 244 247 246 249 256 260 260 260 260 261 263 264 266
235 234 232 231 230 231 232 232 233 234 234 234 235 237 238 240 241 242 244 244 243 241 239 236 236 236 237 238 239 243 246 245 247 251 254 257 258 257 256 259 261 261
239 237 236 234 233 233 233 233 234 235 235 234 234 235 236 238 240 242 244 245 245 245 245 243 240 239 240 240 238 239 241 242 245 250 253 256 259 259 258 259 258 256
241 240 240 238 237 236 236 235 235 235 235 234 233 234 234 236 238 239 241 242 243 243 244 244 242 240 239 238 237 238 239 241 246 250 253 256 259 261 261 258 254 251
244 244 243 242 242 242 241 240 239 236 236 235 233 233 234 236 237 236 236 238 238 237 237 236 232 230 231 234 235 238 240 242 244 247 252 256 258 258 257 253 248 252
248 247 247 245 245 244 244 244 243 240 238 236 235 235 235 236 236 233 231 233 233 232 231 229 225 221 223 229 234 237 241 243 244 248 254 256 253 248 247 248 253 262